Regional Weather Roundup
Issued by NWS Newport/Morehead, NC

Home | Current Version | Previous Version | Text Only | Print | Product List | Glossary On
Versions: 1 2 3 4 5 6 7 8 9 10 11 12 13 14 15 16 17 18 19 20 21 22 23 24 25 26 27 28 29 30 31 32 33 34 35 36 37 38 39 40 41 42 43 44 45 46 47 48 49 50
000
ASUS42 KMHX 210424
RWRMHX
WEATHER ROUNDUP FOR EASTERN NORTH CAROLINA
NATIONAL WEATHER SERVICE NEWPORT/MOREHEAD CITY NC
1200 AM EDT TUE APR 21 2015

NOTE: "FAIR" INDICATES FEW OR NO CLOUDS BELOW 12,000 FEET
WITH NO SIGNIFICANT WEATHER AND/OR OBSTRUCTIONS TO VISIBILITY

NCZ015>017-031-032-045>047-102-103-210500-
NORTH COAST

CITY           SKY/WX    TMP DP  RH WIND       PRES   REMARKS
EDENTON        CLOUDY    68  63  82 S14       29.71F
ELIZABETH CITY CLOUDY    69  63  81 S12       29.70S
KITTY HAWK     CLOUDY    70  64  80 S9        29.71F
MANTEO         CLOUDY    69  65  88 S21G26    29.72F

$$

NCZ045>047-081-094-103-104-210500-
CENTRAL COAST

CITY           SKY/WX    TMP DP  RH WIND       PRES   REMARKS
FRISCO         CLOUDY    67  65  93 SW12      29.78R
SWANQUARTER      N/A     70 N/A N/A SW15G22   29.71S

$$

NCZ095-097-098-100-101-210500-
SOUTHERN COAST

CITY           SKY/WX    TMP DP  RH WIND       PRES   REMARKS
BEAUFORT       LGT RAIN  68  66  93 S17       29.78S
CEDAR ISLAND     N/A     70 N/A N/A S10G22    29.79S
JACKSONVILLE   CLOUDY    69  62  78 SW8       29.76S
PINEY ISLAND   LGT RAIN N/A N/A N/A S16       29.76F
WILMINGTON     CLOUDY    70  63  78 SW13G21   29.77S


$$

NCZ011>013-027>030-043-044-078>080-089-090>093-098-210500-
COASTAL PLAIN

CITY           SKY/WX    TMP DP  RH WIND       PRES   REMARKS
AHOSKIE        MOCLDY    69  62  77 S7        29.68F
CLINTON        PTCLDY    67  65  91 S5        29.75S
ELIZABETHTOWN  CLEAR     68  64  86 S8        29.75S
GOLDSBORO      MOCLDY    68  64  85 S12G18    29.71R
GREENVILLE     MOCLDY    70  63  78 SW9       29.75S
HAVELOCK       CLOUDY    69  62  78 SW12      29.77S
KENANSVILLE    CLOUDY    67  62  84 CALM      29.75F
KINSTON        CLOUDY    69  63  82 S13G21    29.74S
NEW BERN       CLOUDY    68  63  84 SW7       29.76S
RICHLANDS      CLOUDY    68  61  77 S10G17    29.75F
ROCKY MOUNT    PTCLDY    69  63  81 S12       29.68F
WASHINGTON     CLOUDY    68  63  82 S10       29.73S
WHITEVILLE     CLEAR     68  63  84 S13       29.75S

$$

AMZ130-135-150-152-154-156-158-170-250-252-270-ANZ085-086-088-633-658-670-210500-
MARINE OBSERVATIONS

STATION/POSITION TIME  TEMP    WIND        PRES    WAVE   SWELL
                       AIR SEA DIR/SP/G            HT/PER HT/PER
                 (UTC) (F)     (DEG/KT/KT) (MB)    (FT/S) (FT/S)
CHESAPEAKE LIGHT 0400   64     210/ 28/ 29 1004.4
64 E VA BEACH    0350   63 58  210/ 19/ 23 1005.3    6/ 8   3/ 8
DUCK             0400   70 54  190/ 15/ 19 1004.6
2 E DUCK         0341      56                N/A     4/ 8   2/13
10 NE DUCK       NOT AVBL
OREGON INLET     0400   67 68  220/ 21/ 25 1007.5
HATTERAS CG      0400   70 69  210/  9/ 14 1008.0
DIAMOND BUOY     0350   76 75  210/ 21/ 27 1007.9    6/ 7   2/10
CAPE LOOKOUT     0400   67     220/  9/ 11 1008.5
BEAUFORT LAB     0400   67 65  200/ 13/ 17 1007.5
27 SE WRIGHTSVLE 0400   68 69  230/ 14/ 17   N/A
5 SE WRIGHTSVLE  0400   68 65  210/ 16/ 17 1008.1
225 S CAPE HAT   0350   73 73  230/ 17/ 21 1013.4    5/ 5   2/ 9
41 SE CHARLESTON 0350   72 74  250/ 19/ 23 1009.7    4/ 5   2/ 8

$$



USA.gov is the U.S. government's official web portal to all federal, state and local government web resources and services.